Regional Weather Roundup
Issued by NWS

Home | Current Version | Previous Version | Graphics & Text | Print | Product List | Glossary On
Versions: 1 2 3 4 5 6 7 8 9 10 11 12 13 14 15 16 17 18 19 20 21 22 23 24 25 26 27 28 29 30 31 32 33 34 35 36 37 38 39 40 41 42 43 44 45 46 47 48 49 50
000
ASUS43 KMKX 172300
RWRWI

WISCONSIN REGIONAL WEATHER ROUNDUP
NATIONAL WEATHER SERVICE MILWAUKEE/SULLIVAN WI
600 PM CDT THU APR 17 2014

NOTE: "FAIR" INDICATES FEW OR NO CLOUDS BELOW 12,000 FEET WITH NO
SIGNIFICANT WEATHER AND/OR OBSTRUCTIONS TO VISIBILITY.

WIZ001-002-006>008-014>016-023>028-180000-
NORTHWEST WISCONSIN

CITY           SKY/WX    TMP DP  RH WIND       PRES   REMARKS
SUPERIOR ARPT  CLOUDY    38  24  55 N8        30.28R WCI  32
ASHLAND        CLOUDY    36  26  67 NW6       30.28R WCI  31
HAYWARD        CLOUDY    35  25  66 NW5       30.27R WCI  31
SIREN          MOSUNNY   38  23  54 NW6       30.28R WCI  34
RICE LAKE      CLOUDY    36  27  71 N5        30.29R WCI  32
LADYSMITH      CLOUDY    35  28  77 NW9       30.28R WCI  28
EAU CLAIRE     NOT AVBL
MENOMONIE      CLOUDY    38  28  65 NW8       30.29R WCI  32
NEW RICHMOND   MOSUNNY   38  26  62 N6        30.30R WCI  33
OSCEOLA        SUNNY     40  25  55 CALM      30.32R
$$

WIZ003>005-009-010-017-018-180000-
NORTH CENTRAL WISCONSIN

CITY           SKY/WX    TMP DP  RH WIND       PRES   REMARKS
WOODRUFF       CLOUDY    37  32  84 W8        30.22R WCI  30
RHINELANDER    CLOUDY    34  29  82 W8        30.22R WCI  27
EAGLE RIVER    CLOUDY    34  30  86 W7        30.20R WCI  28
LAND O LAKES   CLOUDY    34  32  93 W5        30.21R WCI  30
PHILLIPS       CLOUDY    32  29  86 NW6       30.23S WCI  27
TOMAHAWK       CLOUDY    34  30  85 W5        30.23R WCI  30
MEDFORD        CLOUDY    34  30  86 NW8       30.24R WCI  27
MERRILL        CLOUDY    37  32  82 CALM      30.23R
$$

WIZ029-030-035-036-043>047-180000-
CENTRAL WISCONSIN

CITY           SKY/WX    TMP DP  RH WIND       PRES   REMARKS
WAUSAU         CLOUDY    37  31  78 W13       30.22R WCI  29
MOSINEE        CLOUDY    37  36  93 W13       30.24R WCI  29
MARSHFIELD     CLOUDY    38  30  73 NW12      30.24R WCI  30
STEVENS POINT  CLOUDY    38  32  78 W7        30.23S WCI  33
WAUPACA        CLOUDY    48  36  61 W9        30.22R
WAUTOMA        NOT AVBL
WISC RAPIDS    CLOUDY    40  32  73 W9        30.26R WCI  34
CAMP DOUGLAS   NOT AVBL
$$

WIZ011>013-019>022-031-037>040-048>050-180000-
NORTHEAST WISCONSIN

CITY           SKY/WX    TMP DP  RH WIND       PRES   REMARKS
ANTIGO         CLOUDY    37  32  84 NW10      30.20R WCI  29
STURGEON BAY   CLOUDY    45  34  65 N7        30.22R
GREEN BAY      PTSUNNY   49  38  65 NW7       30.20R
MANITOWOC      NOT AVBL
APPLETON       PTSUNNY   52  36  54 W13       30.20R
CLINTONVILLE   CLOUDY    46  36  66 NW12      30.21R
OSHKOSH        PTSUNNY   52  37  56 NW10      30.20R
$$

WIZ032>034-041-042-053>061-180000-
SOUTHWEST WISCONSIN

CITY           SKY/WX    TMP DP  RH WIND       PRES   REMARKS
LA CROSSE      CLOUDY    41  30  65 W10       30.28S
SPARTA         CLOUDY    41  31  67 NW8       30.28R
VIROQUA        CLOUDY    41  32  72 NW9       30.25R
BOSCOBEL       SUNNY     51  33  50 W10       30.24R
PRAIRIE DU CHI SUNNY     48  32  53 NW8       30.25R
PLATTEVILLE    FAIR      51  35  54 NW9       30.23R
$$

WIZ056-057-062-063-064-067-068-180000-
SOUTH CENTRAL WISCONSIN

CITY           SKY/WX    TMP DP  RH WIND       PRES   REMARKS
BARABOO/DELLS  PTSUNNY   48  34  58 CALM      30.22R
LONE ROCK      NOT AVBL
WATERTOWN      PTSUNNY   54  37  52 W9        30.20R
MADISON        PTSUNNY   54  36  50 W3        30.21R
MIDDLETON      FAIR      56  33  41 CALM      30.20S
MONROE         MOSUNNY   55  36  48 W9        30.20S
JANESVILLE     SUNNY     57  36  44 NW7       30.20R
$$

WIZ051-052-058>065-066-070>072-180000-
SOUTHEAST WISCONSIN

CITY           SKY/WX    TMP DP  RH WIND       PRES   REMARKS
MILWAUKEE      PTSUNNY   55  37  50 W6        30.22R
WAUKESHA       MOSUNNY   52  37  58 W12       30.21
MILWAUKEE/TIMM SUNNY     54  36  50 W12       30.21S
RACINE         MOSUNNY   55  38  52 W6        30.22R
BURLINGTON     SUNNY     54  37  52 W9        30.20S
KENOSHA        MOSUNNY   55  39  54 W10       30.20S
FOND DU LAC    CLOUDY    54  37  52 W14       30.19R
SHEBOYGAN      CLOUDY    53  39  59 W8        30.18S
WEST BEND      PTSUNNY   52  34  50 W6        30.19S
JUNEAU         PTSUNNY   53  32  46 W6        30.20S
$$

LSZ147-162-180000-
LAKE SUPERIOR

STATION/POSITION TIME  TEMP    WIND        PRES    WAVE
                       AIR SEA DIR/SP/G            HT/PER
                 (UTC) (F)     (DEG/KT/KT) (MB)    (FT/S)
DEVILS ISLAND    2200   33     340/  6/  7 1025.5R
PORT WING        2200   35     260/  5/  8 1024.7R
SAXON HARBOR     2240             CALM     1025.1R
$$

LMZ867-665-643>646-180000-
LAKE MICHIGAN

STATION/POSITION TIME  TEMP    WIND        PRES    WAVE
                       AIR SEA DIR/SP/G            HT/PER
                 (UTC) (F)     (DEG/KT/KT) (MB)    (FT/S)
NORTHPORT PIER   2200   36     350/  2/  4 1023.0R
SISTER BAY       2223   42        CALM       N/A
KEWAUNEE LAKESHO 2200   38     180/  3/  6 1022.8R
SHEBOYGAN LAKESH 2200   50     170/ 11/ 12 1022.7R
PORT WASHINGTON  2240   55     240/  8/ 11 1023.0S
MILWAUKEE LAKESH 2200   52     300/  7/  9   N/A
KENOSHA   LAKESH 2200   56     300/  8/ 13   N/A
$$

TC  - TEMPERATURE IN CELSIUS
VSB - VISIBILITY IN STATUTE MILES
WCI - WIND CHILL INDEX
HX  - HEAT INDEX




USA.gov is the U.S. government's official web portal to all federal, state and local government web resources and services.